Flag for Norway Weather past 2 weeks in Longyearbyen, Svalbard, Norway

Now
45 °F

Partly sunny.


Feels Like: 35 °F
Forecast: 49 / 55 °F
Wind: 29 mph from Southeast

Location: Svalbard Lufthavn

Current Time: Jul 28, 2015 at 3:51:47 PM

Latest Report: Jul 28, 2015 at 2:50 PM


Visibility: N/A

Pressure: 29.92 "Hg

Humidity: 61%

Dew point: 32 °F

Location of LongyearbyenLocation

Historic Weather in Longyearbyen — Graph

°F

Longyearbyen temperature yesterday

Maximum temperature yesterday: 54 °F (at 6:50 PM)
Minimum temperature yesterday: 43 °F (at 3:50 AM)
Average temperature yesterday: 46 °F

Past Weeks' High & Low Weather Summary

 TemperatureHumidityPressure
High55 °F (Jul 20, 4:50 PM)93% (Jul 13, 1:20 PM)30.15 "Hg (Jul 13, 1:20 PM)
Low39 °F (Jul 16, 1:50 AM)47% (Jul 20, 4:50 PM)29.59 "Hg (Jul 24, 7:50 AM)
Average46 °F70%29.91 "Hg
* Reported Jul 13 1:20 PM — Jul 28 1:50 PM, Longyearbyen, Weather by CustomWeather, © 2015

Note: Actual official high and low records may vary slightly from our data, if they occured in-between our weather recording intervals... More about our weather records

Advertising

Longyearbyen weather history for previous 24 hours

 ConditionsComfort  
Time TempWeatherWind HumidityBarometerVisibility
1:50 PM
Tue, Jul 28
45 °FBroken clouds.30 mph61%29.92 "HgN/A
12:50 PM45 °FPartly sunny.22 mph61%29.95 "HgN/A
11:50 AM46 °FPartly sunny.23 mph57%29.98 "HgN/A
10:50 AM46 °FPartly sunny.20 mph57%29.98 "HgN/A
9:50 AM46 °FPartly sunny.22 mph57%30.01 "HgN/A
8:50 AM46 °FPartly sunny.20 mph57%30.04 "HgN/A
7:50 AM46 °FBroken clouds.20 mph62%30.04 "HgN/A
6:50 AM46 °FBroken clouds.24 mph66%30.04 "HgN/A
5:50 AM46 °FBroken clouds.17 mph71%30.04 "HgN/A
4:50 AM46 °FBroken clouds.21 mph71%30.07 "HgN/A
3:50 AM46 °FBroken clouds.22 mph71%30.07 "HgN/A
2:50 AM45 °FBroken clouds.20 mph76%30.07 "HgN/A
1:50 AM46 °FBroken clouds.12 mph71%30.07 "HgN/A
12:50 AM46 °FBroken clouds.20 mph71%30.09 "HgN/A
11:50 PM
Mon, Jul 27
46 °FPartly sunny.8 mph76%30.09 "HgN/A
10:50 PM46 °FDrizzle. Broken clouds.6 mph76%30.09 "HgN/A
9:50 PM48 °FScattered clouds.8 mph66%30.12 "HgN/A
8:50 PM48 °FPartly sunny.13 mph66%30.09 "HgN/A
7:50 PM50 °FPartly sunny.13 mph62%30.09 "HgN/A
6:50 PM54 °FScattered clouds.9 mph58%30.09 "HgN/A
5:50 PM52 °FScattered clouds.9 mph58%30.12 "HgN/A
4:50 PM50 °FPassing clouds.9 mph62%30.12 "HgN/A
3:50 PM48 °FPassing clouds.8 mph58%30.15 "HgN/A
Weather by CustomWeather, © 2015

See weather overviewHow to use our weather pages